[Iaude] MPEC S209: 2017 SV17 [a=0.89,e=0.26,i=5.0,H=25.7]

mpec at mpcdb1.cfa.harvard.edu mpec at mpcdb1.cfa.harvard.edu
Thu Sep 28 22:13:16 EDT 2017


M.P.E.C. 2017-S209                               Issued 2017 Sept. 29, 02:10 UT
 
     The Minor Planet Electronic Circulars contain information on unusual
         minor planets and routine data on comets.  They are published
    on behalf of Division F of the International Astronomical Union by the
          Minor Planet Center, Smithsonian Astrophysical Observatory,
                          Cambridge, MA 02138, U.S.A.

             Prepared using the Tamkin Foundation Computer Network

                              MPC at CFA.HARVARD.EDU
            URL http://www.minorplanetcenter.net/    ISSN 1523-6714


                                   2017 SV17
 
Observations:
     K17S17V* C2017 09 26.49329 02 10 30.294+03 08 13.61         20.6 wLES209F51
     K17S17V  C2017 09 26.50701 02 10 17.416+03 08 27.20         21.0 wLES209F51
     K17S17V  C2017 09 26.52058 02 10 04.818+03 08 40.06         20.8 wLES209F51
     K17S17V  C2017 09 26.53422 02 09 52.069+03 08 53.49         21.1 wLES209F51
     K17S17V KC2017 09 27.24782501 59 42.05 +03 19 22.9          20.8 VuES209H21
     K17S17V KC2017 09 27.25450001 59 36.09 +03 19 29.3          21.1 VuES209H21
     K17S17V KC2017 09 27.26193301 59 29.42 +03 19 36.1          20.6 VuES209H21
     K17S17V  C2017 09 27.41032 01 57 19.36 +03 22 08.6                oES209926
     K17S17V  C2017 09 27.41359 01 57 16.50 +03 22 11.4                oES209926
     K17S17V  C2017 09 27.41687 01 57 13.53 +03 22 14.4                oES209926
     K17S17V  C2017 09 28.46826 01 42 44.32 +03 37 08.1          20.2 RoES209926
     K17S17V  C2017 09 28.47140 01 42 41.68 +03 37 09.7          20.3 RoES209926
     K17S17V  C2017 09 28.47455 01 42 39.05 +03 37 12.2          20.4 RoES209926
 
Observer details:
926 Tenagra II Observatory.  Observers M. Schwartz, P. R. Holvorcem.  Measurer
    M. Schwartz.  0.81-m f/7 Ritchey-Chretien + CCD.
F51 Pan-STARRS 1, Haleakala.  Observers J. Bulger, T. Lowe, A. Schultz,
    M. Willman.  Measurers K. Chambers, S. Chastel, L. Denneau, H. Flewelling,
    M. Huber, E. Lilly, E. Magnier, R. Wainscoat, C. Waters, R. Weryk.  1.8-m
    Ritchey-Chretien + CCD.
H21 Astronomical Research Observatory, Westfield.  Observer R. Holmes.
    Measurers S. Foglia, L. Buzzi, T. Linder, R. Holmes.  0.76-m f/3.0
    astrograph + CCD.
 
Orbital elements:
2017 SV17                                                Earth MOID = 0.0259 AU
Epoch 2017 Sept. 4.0 TT = JDT 2458000.5                 MPC
M  97.80920              (2000.0)            P               Q
n   1.17480454     Peri.  209.57007     -0.76455251     +0.64436095
a   0.8895267      Node    10.59361     -0.57288151     -0.66788661
e   0.2597919      Incl.    5.01662     -0.29540859     -0.37246000
P   0.84           H   25.7           G   0.15           U   8
Residuals in seconds of arc
170926 F51  0.0   0.1+    170927 H21  0.4+  0.0     170928 926  0.2-  0.6+
170926 F51  0.8-  0.2+    170927 H21  0.3+  0.1-    170928 926  0.0   0.2-
170926 F51  0.5+  0.2-    170927 926  0.9-  0.0     170928 926  0.4+  0.1-
170926 F51  0.3+  0.0     170927 926  0.2+  0.1-
170927 H21  0.1+  0.2-    170927 926  0.3-  0.0

Ephemeris:
2017 SV17                a,e,i = 0.89, 0.26, 5                   q = 0.6584
Date    TT    R. A. (2000) Decl.     Delta      r     Elong.  Phase     V
2017 08 30    07 08 31.7 -03 30 16   0.09653 0.9541    52.6   122.8    25.6
...
2017 09 14    05 10 06.4 -00 58 38   0.06165 1.0125    94.4    82.1    22.5
...
2017 09 22    03 19 05.2 +01 43 24   0.05435 1.0390   129.2    48.5    21.3
...
2017 09 28    01 49 11.0 +03 31 52   0.05887 1.0566   157.1    21.7    20.7
2017 09 29    01 35 48.7 +03 45 10   0.06050 1.0593   161.3    17.6    20.7
2017 09 30    01 23 07.9 +03 57 00   0.06235 1.0619   165.4    13.7    20.6
...
2017 10 06    00 22 20.8 +04 42 29   0.07738 1.0767   173.9     5.6    20.8
...
2017 10 14    23 35 07.2 +05 06 03   0.1047  1.0931   154.8    22.9    22.1
...
2017 10 29    23 02 32.6 +05 37 18   0.1677  1.1135   132.5    41.1    23.7

A. U. Tomatic                (C) Copyright 2017 MPC           M.P.E.C. 2017-S209




More information about the Iaude mailing list